Voltar ao catálogo

COSMOS 1410 DEB

AtivoPO
NORAD 44696·DEBRIS·🇷🇺 Russia

Lançado Sep 24, 1982 de Plesetsk Cosmodrome

Loading…

Próximas Passagens (próximas 24 horas)

TLE

ObsoletoSource: Space-Track

Época: Sep 3, 2026, 05:47 UTC

1 44696U 82096C   26246.24109056  .00000021  00000-0  77463-4 0  9995
2 44696  82.6049  62.7443 0004972 127.5956 232.5576 12.42653940537161

Acompanhe COSMOS 1410 DEB em tempo real com AllMySat

Download on the App Store